Regional Weather Roundup
Issued by NWS Little Rock, AR

Home | Current Version | Previous Version | Graphics & Text | Print | Product List | Glossary On
Versions: 1 2 3 4 5 6 7 8 9 10 11 12 13 14 15 16 17 18 19 20 21 22 23 24 25 26 27 28 29 30 31 32 33 34 35 36 37 38 39 40 41 42 43 44 45 46 47 48 49 50
000
ASUS44 KLZK 011605
RWRLZK

WEATHER ROUNDUP FOR ARKANSAS
NATIONAL WEATHER SERVICE LITTLE ROCK AR
1100 AM CDT WED APR 01 2015

NOTE: "FAIR" INDICATES FEW OR NO CLOUDS BELOW 12,000 FEET WITH NO
SIGNIFICANT WEATHER AND/OR OBSTRUCTIONS TO VISIBILITY.

ARZ001-003-010-029-011700-
NORTHWEST ARKANSAS

CITY           SKY/WX    TMP DP  RH WIND       PRES   REMARKS
FAYETTEVILLE   CLOUDY    69  61  75 SE15G22   29.95R
FORT SMITH     LGT RAIN  70  62  76 CALM      29.94R
HARRISON       CLOUDY    60  58  92 SE13      29.97R FOG
BENTONVILLE    CLOUDY    63  57  82 CALM      29.96S
ROGERS         LGT RAIN  63  58  83 MISG        N/A
SILOAM SPGS    CLOUDY    64  55  72 E5        29.96S
HIGHFILL       CLOUDY    63  60  90 CALM      29.95R
SPRINGDALE     MOSUNNY   66  61  82 CALM      29.98R
$$

ARZ004-005-016-011700-
NORTH CENTRAL ARKANSAS

CITY           SKY/WX    TMP DP  RH WIND       PRES   REMARKS
BATESVILLE     CLOUDY    64  57  77 E7        30.01R
FLIPPIN        CLOUDY    63  54  72 E13G18    29.96F
MTN HOME       CLOUDY    63  56  78 E12G20    29.97S
$$

ARZ040-041-011700-
WEST CENTRAL ARKANSAS

CITY           SKY/WX    TMP DP  RH WIND       PRES   REMARKS
MENA           CLOUDY    70  64  83 SW6       29.99R
MOUNT IDA      PTSUNNY   69  62  78 VRB5      29.97R
$$

ARZ009-017-025-026-028-011700-
NORTHEAST ARKANSAS

CITY           SKY/WX    TMP DP  RH WIND       PRES   REMARKS
CORNING          N/A     68  46  45 SE15      30.05S
JONESBORO      MOSUNNY   68  55  63 E15       30.01F
NEWPORT        CLOUDY    65  62  90 SE12G20   30.02S
BLYTHEVILLE    PTSUNNY   70  40  33 SE14      30.05F
NW BLYTHEVILLE PTSUNNY   70  43  37 SE15      30.05S
$$

ARZ022-023-033-042-044-011700-
CENTRAL ARKANSAS

CITY           SKY/WX    TMP DP  RH WIND       PRES   REMARKS
LITTLE ROCK    PTSUNNY   73  62  68 S6        29.98R
N LITTLE ROCK  PTSUNNY   70  65  82 S9        29.98R
JACKSONVILLE   CLOUDY    72  64  73 S8        29.98S
SEARCY         CLOUDY    69  64  84 SE6       30.01R
HOT SPRINGS    CLOUDY    69  63  81 S5        29.99R
RUSSELLVILLE   CLOUDY    68  64  87 VRB3      29.96R
CLINTON        CLOUDY    63  63 100 E6        29.99F FOG
$$

ARZ036-011700-
EAST ARKANSAS

CITY           SKY/WX    TMP DP  RH WIND       PRES   REMARKS
WEST MEMPHIS   MOSUNNY   68  62  81 SE12      30.01F
$$

ARZ050-053-066-070-073-011700-
SOUTHWEST ARKANSAS

CITY           SKY/WX    TMP DP  RH WIND       PRES   REMARKS
ARKADELPHIA    PTSUNNY   74  67  78 S9        30.00R
CAMDEN         MOSUNNY   77  63  61 CALM      30.00R
TEXARKANA      PTSUNNY   72  65  78 S12       29.99R
EL DORADO      PTSUNNY   76  62  62 S13       30.01R
DE QUEEN       CLOUDY    71  64  78 SW7       29.97R
$$

ARZ056-057-069-011700-
SOUTHEAST ARKANSAS

CITY           SKY/WX    TMP DP  RH WIND       PRES   REMARKS
PINE BLUFF     MOSUNNY   71  64  78 SW8       30.00S
STUTTGART      MOSUNNY   73  63  68 SE13      30.00S
MONTICELLO     CLOUDY    71  64  78 S7        30.01F

$$




USA.gov is the U.S. government's official web portal to all federal, state and local government web resources and services.